GLO1624 SBSP-SBGL

Flight info

Callsign GLO1624
Flight time 0h 36m
Altitude 29000
Route BAIA3B UREMI UZ42 VUREP PABE1B
Aircraft B738/M-SDFGIKLORWXY/LB1

Departure

Time 2026-05-05 11:35
Airport Congonhas–Deputado Freitas Nobre Airport (SBSP)

Arrival

Time 2026-05-05 12:11
Airport Rio Galeão – Tom Jobim International Airport (SBGL)
Time Latitude Longitude Altitude Speed Heading
2026-05-05 11:22 -23.62811 -46.65753 2600 ft 0 kts 238°
2026-05-05 11:28 -23.62809 -46.65749 2600 ft 3 kts 238°
2026-05-05 11:28 -23.62798 -46.65725 2600 ft 4 kts 275°
2026-05-05 11:28 -23.62807 -46.65708 2600 ft 4 kts 320°
2026-05-05 11:28 -23.62818 -46.65698 2600 ft 4 kts 324°
2026-05-05 11:29 -23.62841 -46.65682 2600 ft 4 kts 328°
2026-05-05 11:29 -23.62846 -46.65678 2600 ft 1 kts 327°
2026-05-05 11:32 -23.62830 -46.65690 2600 ft 9 kts 327°
2026-05-05 11:32 -23.62754 -46.65723 2600 ft 14 kts 346°
2026-05-05 11:32 -23.62663 -46.65756 2601 ft 14 kts 329°
2026-05-05 11:32 -23.62586 -46.65810 2601 ft 13 kts 327°
2026-05-05 11:33 -23.62505 -46.65866 2600 ft 15 kts 327°
2026-05-05 11:33 -23.62408 -46.65933 2600 ft 18 kts 328°
2026-05-05 11:33 -23.62296 -46.66010 2599 ft 20 kts 328°
2026-05-05 11:33 -23.62175 -46.66086 2596 ft 20 kts 327°
2026-05-05 11:34 -23.62091 -46.66139 2595 ft 13 kts 346°
2026-05-05 11:34 -23.62044 -46.66087 2592 ft 12 kts 107°
2026-05-05 11:34 -23.62096 -46.66042 2596 ft 10 kts 147°
2026-05-05 11:34 -23.62315 -46.65891 2599 ft 78 kts 147°
2026-05-05 11:35 -23.62998 -46.65417 2609 ft 153 kts 147°
2026-05-05 11:35 -23.64045 -46.64687 2954 ft 186 kts 147°
2026-05-05 11:35 -23.65096 -46.63891 4103 ft 184 kts 135°
2026-05-05 11:35 -23.65744 -46.62708 4943 ft 180 kts 112°
2026-05-05 11:36 -23.66284 -46.61431 5386 ft 197 kts 116°
2026-05-05 11:36 -23.66941 -46.59983 5643 ft 228 kts 116°
2026-05-05 11:36 -23.67704 -46.58343 5880 ft 256 kts 117°
2026-05-05 11:36 -23.68564 -46.56537 6293 ft 277 kts 117°
2026-05-05 11:37 -23.69473 -46.54655 7174 ft 282 kts 118°
2026-05-05 11:37 -23.70395 -46.52754 8088 ft 285 kts 118°
2026-05-05 11:37 -23.71329 -46.50834 8931 ft 289 kts 117°
2026-05-05 11:37 -23.71932 -46.48734 9712 ft 295 kts 92°
2026-05-05 11:38 -23.71789 -46.46484 10487 ft 304 kts 83°
2026-05-05 11:38 -23.71460 -46.44101 10750 ft 329 kts 81°
2026-05-05 11:38 -23.71073 -46.41591 11373 ft 339 kts 81°
2026-05-05 11:38 -23.70678 -46.39035 12186 ft 343 kts 81°
2026-05-05 11:39 -23.70288 -46.36456 13009 ft 346 kts 81°
2026-05-05 11:39 -23.69907 -46.33871 13766 ft 351 kts 82°
2026-05-05 11:39 -23.69523 -46.31228 14502 ft 356 kts 82°
2026-05-05 11:39 -23.69136 -46.28539 15229 ft 360 kts 82°
2026-05-05 11:40 -23.68747 -46.25822 15941 ft 364 kts 82°
2026-05-05 11:40 -23.68354 -46.23073 16655 ft 369 kts 82°
2026-05-05 11:40 -23.67957 -46.20297 17364 ft 373 kts 82°
2026-05-05 11:40 -23.67554 -46.17492 18050 ft 376 kts 82°
2026-05-05 11:41 -23.67147 -46.14652 18699 ft 380 kts 82°
2026-05-05 11:41 -23.66541 -46.11832 19295 ft 387 kts 68°
2026-05-05 11:41 -23.65368 -46.09175 19929 ft 391 kts 64°
2026-05-05 11:41 -23.64127 -46.06514 20537 ft 395 kts 64°
2026-05-05 11:42 -23.62873 -46.03831 21117 ft 399 kts 64°
2026-05-05 11:42 -23.61612 -46.01115 21677 ft 403 kts 64°
2026-05-05 11:42 -23.60348 -45.98370 22206 ft 407 kts 64°
2026-05-05 11:42 -23.59081 -45.95598 22762 ft 411 kts 65°
2026-05-05 11:43 -23.57820 -45.92827 23245 ft 414 kts 65°
2026-05-05 11:43 -23.56535 -45.89999 23738 ft 418 kts 65°
2026-05-05 11:43 -23.55240 -45.87145 24232 ft 422 kts 65°
2026-05-05 11:43 -23.53934 -45.84270 24718 ft 424 kts 65°
2026-05-05 11:44 -23.52623 -45.81386 25312 ft 424 kts 65°
2026-05-05 11:44 -23.51320 -45.78522 26011 ft 420 kts 65°
2026-05-05 11:44 -23.50024 -45.75675 26679 ft 418 kts 65°
2026-05-05 11:44 -23.48732 -45.72840 27253 ft 417 kts 65°
2026-05-05 11:45 -23.47440 -45.70004 27797 ft 418 kts 65°
2026-05-05 11:45 -23.46151 -45.67175 28389 ft 416 kts 65°
2026-05-05 11:45 -23.44864 -45.64355 28975 ft 415 kts 64°
2026-05-05 11:45 -23.43576 -45.61533 29263 ft 420 kts 64°
2026-05-05 11:46 -23.42258 -45.58646 29260 ft 431 kts 64°
2026-05-05 11:46 -23.39530 -45.52679 29276 ft 449 kts 64°
2026-05-05 11:46 -23.38330 -45.49512 29251 ft 457 kts 76°
2026-05-05 11:47 -23.37606 -45.46163 29269 ft 463 kts 79°
2026-05-05 11:47 -23.36308 -45.39228 29258 ft 468 kts 79°
2026-05-05 11:48 -23.34120 -45.28877 29251 ft 467 kts 78°
2026-05-05 11:48 -23.32637 -45.22018 29247 ft 465 kts 78°
2026-05-05 11:49 -23.31162 -45.15185 29256 ft 463 kts 78°
2026-05-05 11:49 -23.29693 -45.08376 29250 ft 462 kts 78°
2026-05-05 11:50 -23.28219 -45.01567 29249 ft 462 kts 78°
2026-05-05 11:50 -23.26743 -44.94766 29043 ft 461 kts 78°
2026-05-05 11:51 -23.26008 -44.91386 28606 ft 455 kts 78°
2026-05-05 11:51 -23.25283 -44.88054 28080 ft 451 kts 78°
2026-05-05 11:51 -23.24564 -44.84753 27559 ft 446 kts 78°
2026-05-05 11:51 -23.23850 -44.81478 27037 ft 442 kts 78°
2026-05-05 11:52 -23.23145 -44.78249 26530 ft 438 kts 78°
2026-05-05 11:52 -23.22442 -44.75032 26013 ft 434 kts 78°
2026-05-05 11:52 -23.21756 -44.71892 25507 ft 430 kts 78°
2026-05-05 11:52 -23.21067 -44.68742 24987 ft 427 kts 78°
2026-05-05 11:53 -23.20383 -44.65616 24491 ft 423 kts 78°
2026-05-05 11:53 -23.19703 -44.62516 23983 ft 420 kts 78°
2026-05-05 11:53 -23.19049 -44.59442 23489 ft 416 kts 78°
2026-05-05 11:53 -23.18406 -44.56384 22993 ft 413 kts 77°
2026-05-05 11:54 -23.17482 -44.53440 22485 ft 411 kts 66°
2026-05-05 11:54 -23.16260 -44.50645 22010 ft 407 kts 64°
2026-05-05 11:54 -23.15016 -44.47894 21510 ft 404 kts 64°
2026-05-05 11:54 -23.13776 -44.45162 21018 ft 401 kts 64°
2026-05-05 11:55 -23.12554 -44.42452 20528 ft 398 kts 64°
2026-05-05 11:55 -23.11346 -44.39751 20042 ft 396 kts 64°
2026-05-05 11:55 -23.10154 -44.37072 19557 ft 393 kts 65°
2026-05-05 11:55 -23.08984 -44.34433 19071 ft 390 kts 65°
2026-05-05 11:56 -23.07812 -44.31786 18593 ft 388 kts 65°
2026-05-05 11:56 -23.07027 -44.30012 18263 ft 385 kts 65°
2026-05-05 11:56 -23.05493 -44.26548 17637 ft 382 kts 64°
2026-05-05 11:56 -23.04342 -44.23950 17167 ft 380 kts 64°
2026-05-05 11:57 -23.03570 -44.22209 16847 ft 378 kts 64°
2026-05-05 11:57 -23.02434 -44.19647 16385 ft 375 kts 64°
2026-05-05 11:57 -23.01306 -44.17103 15906 ft 373 kts 64°
2026-05-05 11:57 -23.00183 -44.14574 15446 ft 370 kts 64°
2026-05-05 11:58 -22.99072 -44.12074 14981 ft 368 kts 64°
2026-05-05 11:58 -22.97962 -44.09575 14520 ft 365 kts 64°
2026-05-05 11:58 -22.96871 -44.07121 14056 ft 363 kts 64°
2026-05-05 11:58 -22.95774 -44.04656 13601 ft 360 kts 64°
2026-05-05 11:59 -22.94690 -44.02219 13152 ft 358 kts 64°
2026-05-05 11:59 -22.93608 -43.99790 12697 ft 356 kts 64°
2026-05-05 11:59 -22.92535 -43.97383 12237 ft 353 kts 64°
2026-05-05 11:59 -22.91470 -43.94996 11793 ft 351 kts 64°
2026-05-05 12:00 -22.90410 -43.92616 11337 ft 348 kts 64°
2026-05-05 12:00 -22.89358 -43.90258 10920 ft 345 kts 64°
2026-05-05 12:00 -22.88330 -43.87955 10781 ft 334 kts 64°
2026-05-05 12:00 -22.87348 -43.85753 10628 ft 324 kts 64°
2026-05-05 12:01 -22.86378 -43.83580 10468 ft 307 kts 64°
2026-05-05 12:01 -22.85488 -43.81586 10345 ft 290 kts 64°
2026-05-05 12:01 -22.84622 -43.79647 9981 ft 284 kts 64°
2026-05-05 12:01 -22.83764 -43.77725 9484 ft 283 kts 64°
2026-05-05 12:02 -22.82909 -43.75812 9018 ft 281 kts 64°
2026-05-05 12:02 -22.82057 -43.73908 8556 ft 279 kts 64°
2026-05-05 12:02 -22.81215 -43.72022 8124 ft 276 kts 65°
2026-05-05 12:02 -22.80595 -43.70061 7660 ft 274 kts 76°
2026-05-05 12:03 -22.80165 -43.68053 7214 ft 272 kts 77°
2026-05-05 12:03 -22.79740 -43.66063 6786 ft 270 kts 77°
2026-05-05 12:03 -22.79305 -43.64116 6532 ft 260 kts 76°
2026-05-05 12:03 -22.78881 -43.62258 6366 ft 247 kts 76°
2026-05-05 12:04 -22.78474 -43.60496 6239 ft 235 kts 76°
2026-05-05 12:04 -22.78087 -43.58831 6136 ft 224 kts 76°
2026-05-05 12:04 -22.77707 -43.57201 6035 ft 224 kts 76°
2026-05-05 12:04 -22.77300 -43.55547 5816 ft 230 kts 70°
2026-05-05 12:05 -22.76696 -43.53958 5616 ft 230 kts 65°
2026-05-05 12:05 -22.76054 -43.52398 5371 ft 224 kts 65°
2026-05-05 12:05 -22.75434 -43.50872 5131 ft 218 kts 66°
2026-05-05 12:05 -22.74834 -43.49379 4882 ft 212 kts 66°
2026-05-05 12:06 -22.74255 -43.47929 4624 ft 208 kts 66°
2026-05-05 12:06 -22.73684 -43.46497 4354 ft 205 kts 66°
2026-05-05 12:06 -22.73124 -43.45085 4092 ft 203 kts 66°
2026-05-05 12:06 -22.72568 -43.43685 3806 ft 200 kts 66°
2026-05-05 12:07 -22.72018 -43.42302 3545 ft 198 kts 67°
2026-05-05 12:07 -22.71826 -43.40872 3259 ft 196 kts 105°
2026-05-05 12:07 -22.72484 -43.39608 3038 ft 188 kts 124°
2026-05-05 12:07 -22.73229 -43.38485 2758 ft 182 kts 124°
2026-05-05 12:08 -22.73942 -43.37403 2506 ft 170 kts 124°
2026-05-05 12:08 -22.74608 -43.36398 2291 ft 157 kts 124°
2026-05-05 12:08 -22.75232 -43.35457 2076 ft 151 kts 124°
2026-05-05 12:08 -22.75850 -43.34523 1878 ft 153 kts 124°
2026-05-05 12:09 -22.76473 -43.33579 1694 ft 154 kts 125°
2026-05-05 12:09 -22.77096 -43.32639 1487 ft 153 kts 125°
2026-05-05 12:09 -22.77714 -43.31706 1275 ft 152 kts 125°
2026-05-05 12:09 -22.78330 -43.30775 1077 ft 152 kts 125°
2026-05-05 12:10 -22.78947 -43.29844 875 ft 152 kts 125°
2026-05-05 12:10 -22.79563 -43.28914 675 ft 152 kts 125°
2026-05-05 12:10 -22.80173 -43.27990 500 ft 151 kts 125°
2026-05-05 12:10 -22.80785 -43.27054 257 ft 153 kts 124°
2026-05-05 12:11 -22.81406 -43.26115 55 ft 153 kts 126°
2026-05-05 12:11 -22.81988 -43.25243 30 ft 127 kts 126°
2026-05-05 12:11 -22.82304 -43.24759 18 ft 31 kts 117°
2026-05-05 12:11 -22.82360 -43.24559 18 ft 9 kts 97°
2026-05-05 12:12 -22.82366 -43.24504 18 ft 7 kts 97°
2026-05-05 12:12 -22.82336 -43.24465 18 ft 8 kts 357°
2026-05-05 12:12 -22.82297 -43.24506 19 ft 8 kts 306°
2026-05-05 12:12 -22.82265 -43.24554 19 ft 8 kts 306°
2026-05-05 12:13 -22.82233 -43.24600 20 ft 7 kts 307°
2026-05-05 12:13 -22.82192 -43.24662 20 ft 16 kts 306°
2026-05-05 12:13 -22.82105 -43.24723 19 ft 14 kts 17°
2026-05-05 12:13 -22.82025 -43.24667 21 ft 13 kts 35°
2026-05-05 12:14 -22.81938 -43.24644 20 ft 13 kts 22°
2026-05-05 12:14 -22.81864 -43.24592 22 ft 13 kts 34°
2026-05-05 12:14 -22.81777 -43.24560 23 ft 13 kts 343°
2026-05-05 12:14 -22.81700 -43.24625 23 ft 15 kts 308°
2026-05-05 12:15 -22.81646 -43.24701 21 ft 10 kts 325°
2026-05-05 12:15 -22.81589 -43.24688 21 ft 4 kts 25°